Location: eljas
(40.1958°N, 6.8661°W)
Time: 16:41:48
(UTC+02:00)

ISS - All Passes

Search period start: 24 October 2014 00:00
Search period end: 02 November 2014 23:00
Orbit: 413 x 416 km, 51.6° (Epoch: 24 October)

Date Brightness Start Highest point End Pass type
(mag) Time Alt. Az. Time Alt. Az. Time Alt. Az.
24 Oct - 14:32:15 10° SW 14:35:30 55° SE 14:38:47 10° ENE daylight
24 Oct - 16:09:39 10° W 16:12:24 23° NNW 16:15:09 10° NNE daylight
24 Oct - 17:48:42 10° NNW 17:50:02 12° N 17:51:22 10° NNE daylight
24 Oct - 19:25:32 10° NNW 19:27:48 17° NNE 19:30:03 10° ENE daylight
24 Oct - 21:01:38 10° NW 21:04:59 70° NE 21:08:18 10° ESE visible
24 Oct - 22:39:45 10° WSW 22:41:15 13° SW 22:42:45 10° SSW visible
25 Oct - 13:43:30 10° SSW 13:46:26 29° SE 13:49:23 10° ENE daylight
25 Oct - 15:20:01 10° W 15:23:05 33° NNW 15:26:09 10° NE daylight
25 Oct - 16:58:56 10° NW 17:00:33 13° N 17:02:11 10° NNE daylight
25 Oct - 18:36:32 10° NNW 18:38:22 14° NNE 18:40:11 10° NE daylight
25 Oct - 20:12:33 10° NW 20:15:45 41° NNE 20:18:55 10° ESE visible
25 Oct - 21:49:36 10° W 21:52:16 22° SW 21:54:55 10° S visible
26 Oct - 11:55:12 10° S 11:57:23 17° SE 11:59:36 10° E daylight
26 Oct - 13:30:32 10° WSW 13:33:47 53° NNW 13:37:04 10° NE daylight
26 Oct - 15:09:02 10° NW 15:11:04 15° NNW 15:13:06 10° NNE daylight
26 Oct - 16:47:24 10° NNW 16:48:51 12° N 16:50:18 10° NNE daylight
26 Oct - 18:23:29 10° NW 18:26:25 27° NNE 18:29:19 10° E daylight
26 Oct - 20:00:01 10° WNW 20:03:11 40° SW 20:06:19 10° SSE visible
27 Oct - 12:41:12 10° SW 12:44:31 87° SE 12:47:52 10° NE daylight
27 Oct - 14:19:07 10° WNW 14:21:34 19° NNW 14:24:02 10° NNE daylight
27 Oct - 15:58:02 10° NNW 15:59:17 12° N 16:00:33 10° NNE daylight
27 Oct - 17:34:25 10° NNW 17:36:59 20° NNE 17:39:32 10° ENE daylight
27 Oct - 19:10:39 10° NW 19:13:59 76° SW 19:17:18 10° SE visible
28 Oct - 11:52:05 10° SSW 11:55:17 46° SE 11:58:29 10° ENE daylight
28 Oct - 13:29:16 10° W 13:32:06 25° NNW 13:34:56 10° NNE daylight
28 Oct - 15:08:18 10° NNW 15:09:41 12° N 15:11:03 10° NNE daylight
28 Oct - 16:45:19 10° NNW 16:47:27 16° NNE 16:49:35 10° NE daylight
28 Oct - 18:21:22 10° NW 18:24:40 60° NE 18:27:58 10° ESE daylight
28 Oct - 19:59:05 10° W 20:01:00 15° SW 20:02:55 10° SSW visible
29 Oct - 11:03:17 10° S 11:06:04 25° SE 11:08:52 10° ENE daylight
29 Oct - 12:39:31 10° W 12:42:38 37° NNW 12:45:46 10° NE daylight
29 Oct - 14:18:20 10° NW 14:20:03 13° N 14:21:46 10° NNE daylight
29 Oct - 15:56:09 10° NNW 15:57:51 13° N 15:59:33 10° NE daylight
29 Oct - 17:32:08 10° NW 17:35:16 36° NNE 17:38:23 10° E daylight
29 Oct - 19:09:01 10° WNW 19:11:51 26° SW 19:14:40 10° SSE visible
30 Oct - 10:15:02 10° SSE 10:16:53 14° SE 10:18:44 10° E daylight
30 Oct - 11:49:54 10° WSW 11:53:12 61° NW 11:56:30 10° NE daylight
30 Oct - 13:28:16 10° NW 13:30:24 16° NNW 13:32:33 10° NNE daylight
30 Oct - 15:06:49 10° NNW 15:08:10 12° N 15:09:32 10° NNE daylight
30 Oct - 16:42:56 10° NNW 16:45:45 25° NNE 16:48:34 10° E daylight
30 Oct - 18:19:21 10° WNW 18:22:34 47° SW 18:25:47 10° SSE daylight
31 Oct - 11:00:29 10° SW 11:03:47 74° SE 11:07:06 10° NE daylight
31 Oct - 12:38:12 10° WNW 12:40:46 20° NNW 12:43:20 10° NNE daylight
31 Oct - 14:17:11 10° NNW 14:18:26 12° N 14:19:41 10° NNE daylight
31 Oct - 15:53:42 10° NNW 15:56:09 19° NNE 15:58:34 10° ENE daylight
31 Oct - 17:29:51 10° NW 17:33:12 89° SW 17:36:31 10° SE daylight
01 Nov - 10:11:18 10° SSW 10:14:24 39° SE 10:17:32 10° ENE daylight
01 Nov - 11:48:13 10° W 11:51:08 28° NNW 11:54:04 10° NE daylight
01 Nov - 13:27:14 10° NNW 13:28:40 12° N 13:30:07 10° NNE daylight
01 Nov - 15:04:26 10° NNW 15:06:26 15° NNE 15:08:26 10° NE daylight
01 Nov - 16:40:27 10° NW 16:43:43 51° NNE 16:46:58 10° ESE daylight
01 Nov - 18:17:51 10° W 18:20:06 17° SW 18:22:21 10° S daylight
02 Nov - 09:22:27 10° S 09:25:03 21° SE 09:27:39 10° E daylight
02 Nov - 10:58:21 10° WSW 11:01:32 42° NNW 11:04:43 10° NE daylight
02 Nov - 12:37:03 10° NW 12:38:53 14° NNW 12:40:42 10° NNE daylight
02 Nov - 14:15:05 10° NNW 14:16:40 13° N 14:18:14 10° NE daylight
02 Nov - 15:51:05 10° NW 15:54:07 32° NNE 15:57:09 10° E daylight
02 Nov - 17:27:47 10° WNW 17:30:45 30° SW 17:33:43 10° SSE daylight
